ALT326 KMIA-CYUL

Flight info

Callsign ALT326
Flight time N/A
Altitude 34000
Route FOLZZ3 ALYRA DCT GRUBR/N0463F350 Y299 SEELO DCT WAALT Q131 EARZZ DCT JAMIE Q133 PBERG CARTR5
Aircraft A321/M-SDE3FGHIRWY/LB1

Departure

Time N/A
Airport Miami International Airport (KMIA)

Arrival

Time 2026-05-06 20:29
Airport Montreal / Pierre Elliott Trudeau International Airport (CYUL)
Time Latitude Longitude Altitude Speed Heading
2026-05-06 17:32 26.25806 -79.39799 20720 ft 419 kts 51°
2026-05-06 17:33 26.27511 -79.37148 21072 ft 421 kts 47°
2026-05-06 17:33 26.29495 -79.34771 21416 ft 419 kts 38°
2026-05-06 17:33 26.31812 -79.32823 21742 ft 417 kts 28°
2026-05-06 17:33 26.34269 -79.31089 22078 ft 419 kts 28°
2026-05-06 17:34 26.36739 -79.29342 22394 ft 422 kts 28°
2026-05-06 17:34 26.39220 -79.27581 22714 ft 424 kts 28°
2026-05-06 17:34 26.41713 -79.25807 23016 ft 426 kts 28°
2026-05-06 17:34 26.44217 -79.24022 23310 ft 429 kts 28°
2026-05-06 17:35 26.46738 -79.22222 23601 ft 431 kts 29°
2026-05-06 17:35 26.49271 -79.20413 23893 ft 433 kts 28°
2026-05-06 17:35 26.51817 -79.18593 24178 ft 436 kts 29°
2026-05-06 17:36 26.56941 -79.14931 24779 ft 439 kts 28°
2026-05-06 17:36 26.59513 -79.13089 25091 ft 440 kts 28°
2026-05-06 17:36 26.62089 -79.11243 25395 ft 440 kts 28°
2026-05-06 17:36 26.64671 -79.09392 25697 ft 442 kts 28°
2026-05-06 17:37 26.67228 -79.07560 26006 ft 442 kts 28°
2026-05-06 17:37 26.69820 -79.05699 26305 ft 443 kts 28°
2026-05-06 17:37 26.72419 -79.03833 26606 ft 445 kts 28°
2026-05-06 17:37 26.75026 -79.01965 26885 ft 446 kts 28°
2026-05-06 17:38 26.77674 -79.00067 27177 ft 447 kts 27°
2026-05-06 17:38 26.80289 -78.98187 27458 ft 448 kts 27°
2026-05-06 17:38 26.82878 -78.96326 27722 ft 448 kts 27°
2026-05-06 17:38 26.85506 -78.94434 28018 ft 449 kts 27°
2026-05-06 17:39 26.88171 -78.92512 28294 ft 450 kts 27°
2026-05-06 17:39 26.90810 -78.90611 28569 ft 451 kts 27°
2026-05-06 17:39 26.93456 -78.88708 28820 ft 452 kts 27°
2026-05-06 17:39 26.96108 -78.86799 29098 ft 453 kts 27°
2026-05-06 17:40 26.98730 -78.84911 29355 ft 455 kts 27°
2026-05-06 17:40 27.01423 -78.82971 29699 ft 453 kts 27°
2026-05-06 17:40 27.04032 -78.81089 30083 ft 451 kts 26°
2026-05-06 17:40 27.06661 -78.79190 30476 ft 449 kts 26°
2026-05-06 17:41 27.09282 -78.77294 30822 ft 447 kts 26°
2026-05-06 17:41 27.11892 -78.75406 31142 ft 446 kts 26°
2026-05-06 17:41 27.14501 -78.73516 31443 ft 446 kts 26°
2026-05-06 17:41 27.17103 -78.71627 31742 ft 446 kts 26°
2026-05-06 17:42 27.19706 -78.69741 32046 ft 445 kts 26°
2026-05-06 17:42 27.22305 -78.67858 32341 ft 444 kts 26°
2026-05-06 17:42 27.24904 -78.65977 32634 ft 444 kts 26°
2026-05-06 17:42 27.27586 -78.64340 32911 ft 435 kts 17°
2026-05-06 17:43 27.30423 -78.63244 33175 ft 427 kts
2026-05-06 17:43 27.33329 -78.62692 33418 ft 421 kts
2026-05-06 17:43 27.36241 -78.62331 33686 ft 421 kts
2026-05-06 17:43 27.39149 -78.61960 33960 ft 420 kts
2026-05-06 17:44 27.42058 -78.61583 34098 ft 421 kts
2026-05-06 17:44 27.44958 -78.61204 34129 ft 419 kts
2026-05-06 17:44 27.50727 -78.60446 34127 ft 417 kts
2026-05-06 17:45 27.56491 -78.59693 34128 ft 417 kts
2026-05-06 17:45 27.62249 -78.58950 34128 ft 417 kts
2026-05-06 17:46 27.68007 -78.58203 34130 ft 417 kts
2026-05-06 17:46 27.73770 -78.57448 34139 ft 417 kts
2026-05-06 17:47 27.79536 -78.56693 34143 ft 417 kts
2026-05-06 17:47 27.85308 -78.55940 34144 ft 418 kts
2026-05-06 17:48 27.91080 -78.55191 34143 ft 418 kts
2026-05-06 17:48 27.96854 -78.54439 34142 ft 418 kts
2026-05-06 17:49 28.02627 -78.53693 34140 ft 418 kts
2026-05-06 17:49 28.08401 -78.52937 34139 ft 418 kts
2026-05-06 17:50 28.14181 -78.52166 34134 ft 418 kts
2026-05-06 17:50 28.19960 -78.51405 34134 ft 418 kts
2026-05-06 17:51 28.25740 -78.50648 34132 ft 418 kts
2026-05-06 17:51 28.31521 -78.49887 34134 ft 418 kts
2026-05-06 17:52 28.37296 -78.49127 34133 ft 418 kts
2026-05-06 17:52 28.43077 -78.48366 34131 ft 418 kts
2026-05-06 17:53 28.48862 -78.47608 34133 ft 419 kts
2026-05-06 17:53 28.54606 -78.46844 34137 ft 418 kts
2026-05-06 17:54 28.60387 -78.46064 34140 ft 418 kts
2026-05-06 17:54 28.66165 -78.45300 34138 ft 418 kts
2026-05-06 17:55 28.71940 -78.44538 34135 ft 418 kts
2026-05-06 17:55 28.77717 -78.43774 34134 ft 418 kts
2026-05-06 17:56 28.83493 -78.43006 34133 ft 418 kts
2026-05-06 17:56 28.89269 -78.42231 34133 ft 418 kts
2026-05-06 17:57 28.95045 -78.41462 34133 ft 418 kts
2026-05-06 17:57 29.00823 -78.40697 34132 ft 418 kts
2026-05-06 17:58 29.05659 -78.40055 34132 ft 418 kts
2026-05-06 17:58 29.11432 -78.39278 34133 ft 418 kts
2026-05-06 17:59 29.17214 -78.38506 34132 ft 418 kts
2026-05-06 17:59 29.22993 -78.37727 34134 ft 418 kts
2026-05-06 18:00 29.28773 -78.36954 34134 ft 418 kts
2026-05-06 18:00 29.34552 -78.36174 34131 ft 418 kts
2026-05-06 18:01 29.40334 -78.35402 34131 ft 418 kts
2026-05-06 18:01 29.46113 -78.34635 34130 ft 416 kts 357°
2026-05-06 18:02 29.51700 -78.35257 34130 ft 402 kts 340°
2026-05-06 18:02 29.57072 -78.37015 34130 ft 402 kts 340°
2026-05-06 18:03 29.62454 -78.38758 34127 ft 402 kts 340°
2026-05-06 18:03 29.67839 -78.40501 34126 ft 402 kts 340°
2026-05-06 18:04 29.73214 -78.42254 34126 ft 402 kts 340°
2026-05-06 18:04 29.78584 -78.44021 34128 ft 401 kts 340°
2026-05-06 18:05 29.83963 -78.45771 34130 ft 402 kts 340°
2026-05-06 18:05 29.89345 -78.47521 34130 ft 402 kts 340°
2026-05-06 18:06 29.94719 -78.49283 34131 ft 402 kts 340°
2026-05-06 18:06 30.00097 -78.51040 34131 ft 402 kts 340°
2026-05-06 18:07 30.05469 -78.52809 34130 ft 401 kts 339°
2026-05-06 18:07 30.10830 -78.54569 34125 ft 400 kts 339°
2026-05-06 18:08 30.16340 -78.55644 34120 ft 411 kts 354°
2026-05-06 18:08 30.22085 -78.54891 34118 ft 416 kts 359°
2026-05-06 18:09 30.27824 -78.54062 34113 ft 416 kts 359°
2026-05-06 18:09 30.33565 -78.53250 34112 ft 415 kts 359°
2026-05-06 18:10 30.39303 -78.52439 34114 ft 416 kts 359°
2026-05-06 18:10 30.45053 -78.51597 34121 ft 417 kts 360°
2026-05-06 18:11 30.50800 -78.50661 34123 ft 417 kts
2026-05-06 18:11 30.56547 -78.49700 34124 ft 417 kts
2026-05-06 18:12 30.62295 -78.48758 34124 ft 417 kts 360°
2026-05-06 18:12 30.68049 -78.47824 34121 ft 417 kts 360°
2026-05-06 18:13 30.73803 -78.46889 34119 ft 418 kts 360°
2026-05-06 18:13 30.79569 -78.45957 34119 ft 418 kts 360°
2026-05-06 18:14 30.85291 -78.45031 34120 ft 418 kts 360°
2026-05-06 18:14 30.91054 -78.44088 34118 ft 418 kts 360°
2026-05-06 18:15 30.96818 -78.43136 34117 ft 418 kts 360°
2026-05-06 18:15 31.02584 -78.42198 34116 ft 419 kts 360°
2026-05-06 18:16 31.08357 -78.41258 34117 ft 419 kts 360°
2026-05-06 18:16 31.14130 -78.40315 34117 ft 419 kts 360°
2026-05-06 18:17 31.19899 -78.39355 34116 ft 419 kts 360°
2026-05-06 18:17 31.25667 -78.38405 34113 ft 419 kts 360°
2026-05-06 18:18 31.31441 -78.37459 34109 ft 419 kts 360°
2026-05-06 18:18 31.37222 -78.36512 34106 ft 419 kts 360°
2026-05-06 18:19 31.43006 -78.35558 34106 ft 420 kts 360°
2026-05-06 18:19 31.48791 -78.34601 34105 ft 420 kts 360°
2026-05-06 18:20 31.54592 -78.33647 34106 ft 420 kts 360°
2026-05-06 18:20 31.60382 -78.32694 34107 ft 420 kts
2026-05-06 18:21 31.66175 -78.31727 34106 ft 421 kts
2026-05-06 18:21 31.71966 -78.30762 34105 ft 420 kts
2026-05-06 18:22 31.77750 -78.29791 34097 ft 419 kts
2026-05-06 18:22 31.83528 -78.28831 34098 ft 420 kts
2026-05-06 18:23 31.89306 -78.27878 34099 ft 419 kts
2026-05-06 18:23 31.95080 -78.26924 34091 ft 419 kts
2026-05-06 18:24 32.00857 -78.25962 34090 ft 419 kts
2026-05-06 18:24 32.06629 -78.24882 34083 ft 421 kts
2026-05-06 18:25 32.12397 -78.23600 34085 ft 423 kts
2026-05-06 18:25 32.18175 -78.22292 34080 ft 423 kts
2026-05-06 18:26 32.23962 -78.21027 34086 ft 423 kts
2026-05-06 18:26 32.29748 -78.19784 34093 ft 423 kts
2026-05-06 18:27 32.35536 -78.18544 34102 ft 423 kts
2026-05-06 18:27 32.41326 -78.17299 34099 ft 423 kts
2026-05-06 18:28 32.47118 -78.16042 34101 ft 423 kts
2026-05-06 18:28 32.52902 -78.14774 34100 ft 423 kts
2026-05-06 18:29 32.58694 -78.13502 34097 ft 424 kts
2026-05-06 18:29 32.64453 -78.12260 34091 ft 424 kts
2026-05-06 18:30 32.70263 -78.11011 34096 ft 425 kts
2026-05-06 18:30 32.76080 -78.09742 34098 ft 425 kts
2026-05-06 18:31 32.81900 -78.08459 34092 ft 426 kts
2026-05-06 18:31 32.87721 -78.07180 34091 ft 425 kts
2026-05-06 18:32 32.93548 -78.05908 34089 ft 426 kts
2026-05-06 18:32 32.99379 -78.04631 34085 ft 426 kts
2026-05-06 18:33 33.05213 -78.03336 34080 ft 426 kts
2026-05-06 18:33 33.11053 -78.02038 34075 ft 428 kts
2026-05-06 18:34 33.16906 -78.00751 34079 ft 428 kts
2026-05-06 18:34 33.22764 -77.99469 34077 ft 428 kts
2026-05-06 18:35 33.28629 -77.98179 34077 ft 429 kts
2026-05-06 18:35 33.34497 -77.96878 34077 ft 429 kts
2026-05-06 18:36 33.40363 -77.95572 34076 ft 429 kts
2026-05-06 18:36 33.46231 -77.94276 34071 ft 429 kts
2026-05-06 18:37 33.51119 -77.93179 34064 ft 431 kts
2026-05-06 18:37 33.58028 -77.91645 34076 ft 433 kts
2026-05-06 18:38 33.63952 -77.90342 34088 ft 432 kts
2026-05-06 18:38 33.69888 -77.89027 34098 ft 435 kts
2026-05-06 18:39 33.72847 -77.88362 34237 ft 434 kts
2026-05-06 18:39 33.75809 -77.87692 34484 ft 433 kts
2026-05-06 18:39 33.78771 -77.87027 34767 ft 434 kts
2026-05-06 18:40 33.84685 -77.85600 35079 ft 433 kts
2026-05-06 18:40 33.89551 -77.84354 35098 ft 429 kts
2026-05-06 18:41 33.96377 -77.82600 35091 ft 433 kts
2026-05-06 18:41 34.02268 -77.81103 35076 ft 431 kts
2026-05-06 18:42 34.08121 -77.79614 35058 ft 428 kts
2026-05-06 18:42 34.13004 -77.78401 35048 ft 429 kts
2026-05-06 18:43 34.18862 -77.76938 35055 ft 430 kts
2026-05-06 18:43 34.24720 -77.75457 35050 ft 432 kts
2026-05-06 18:44 34.30593 -77.73937 35045 ft 432 kts
2026-05-06 18:44 34.36458 -77.72438 35046 ft 428 kts
2026-05-06 18:45 34.42312 -77.70972 35055 ft 430 kts
2026-05-06 18:45 34.48189 -77.69501 35073 ft 432 kts
2026-05-06 18:46 34.54048 -77.67980 35071 ft 431 kts
2026-05-06 18:46 34.56953 -77.66922 35071 ft 442 kts 12°
2026-05-06 18:46 34.59756 -77.65317 35067 ft 446 kts 17°
2026-05-06 18:47 34.65329 -77.61974 35041 ft 448 kts 17°
2026-05-06 18:47 34.70936 -77.58616 35020 ft 449 kts 17°
2026-05-06 18:48 34.76559 -77.55248 35032 ft 453 kts 17°
2026-05-06 18:48 34.82213 -77.51870 35040 ft 452 kts 17°
2026-05-06 18:49 34.87858 -77.48488 35055 ft 454 kts 17°
2026-05-06 18:49 34.93525 -77.45074 35066 ft 456 kts 18°
2026-05-06 18:50 34.99211 -77.41634 35071 ft 456 kts 17°
2026-05-06 18:50 35.04885 -77.38225 35064 ft 456 kts 17°
2026-05-06 18:51 35.10574 -77.34830 35070 ft 454 kts 17°
2026-05-06 18:51 35.16262 -77.31398 35060 ft 457 kts 17°
2026-05-06 18:52 35.21980 -77.27907 35075 ft 461 kts 19°
2026-05-06 18:52 35.27726 -77.24415 35081 ft 461 kts 18°
2026-05-06 18:53 35.33438 -77.20938 35066 ft 457 kts 18°
2026-05-06 18:53 35.39174 -77.17446 35063 ft 460 kts 17°
2026-05-06 18:54 35.44877 -77.13975 35044 ft 458 kts 19°
2026-05-06 18:54 35.50592 -77.10481 35046 ft 458 kts 17°
2026-05-06 18:55 35.56299 -77.07002 35024 ft 459 kts 17°
2026-05-06 18:55 35.62020 -77.03527 35029 ft 459 kts 18°
2026-05-06 18:56 35.67700 -77.00015 35009 ft 455 kts 19°
2026-05-06 18:56 35.73341 -76.96539 35014 ft 460 kts 19°
2026-05-06 18:57 35.79049 -76.93033 35042 ft 459 kts 18°
2026-05-06 18:57 35.84782 -76.89510 35044 ft 461 kts 19°
2026-05-06 18:58 35.90492 -76.85981 35026 ft 458 kts 19°
2026-05-06 18:58 35.96258 -76.82738 35025 ft 454 kts 14°
2026-05-06 18:59 36.02096 -76.79839 35029 ft 450 kts 13°
2026-05-06 18:59 36.07942 -76.76964 34998 ft 454 kts 14°
2026-05-06 19:00 36.13812 -76.73953 35006 ft 461 kts 15°
2026-05-06 19:00 36.19750 -76.70854 35050 ft 463 kts 14°
2026-05-06 19:01 36.25681 -76.67765 35035 ft 463 kts 15°
2026-05-06 19:01 36.31611 -76.64655 35022 ft 462 kts 15°
2026-05-06 19:02 36.37540 -76.61562 35024 ft 461 kts 16°
2026-05-06 19:02 36.43439 -76.58486 35024 ft 461 kts 14°
2026-05-06 19:03 36.49369 -76.55388 35040 ft 463 kts 14°
2026-05-06 19:03 36.55294 -76.52300 35026 ft 461 kts 14°
2026-05-06 19:04 36.61215 -76.49210 35026 ft 462 kts 14°
2026-05-06 19:04 36.67131 -76.46107 35020 ft 461 kts 14°
2026-05-06 19:05 36.73052 -76.42994 35022 ft 462 kts 14°
2026-05-06 19:05 36.78974 -76.39871 35019 ft 462 kts 14°
2026-05-06 19:06 36.84902 -76.36734 35023 ft 462 kts 14°
2026-05-06 19:06 36.90831 -76.33603 35012 ft 463 kts 14°
2026-05-06 19:07 36.96764 -76.30472 35001 ft 463 kts 14°
2026-05-06 19:07 37.02700 -76.27330 34987 ft 464 kts 14°
2026-05-06 19:08 37.08657 -76.24162 34979 ft 465 kts 14°
2026-05-06 19:08 37.14619 -76.20988 34966 ft 466 kts 14°
2026-05-06 19:09 37.20590 -76.17809 34962 ft 467 kts 14°
2026-05-06 19:09 37.26529 -76.14636 34959 ft 467 kts 13°
2026-05-06 19:10 37.32548 -76.11420 34951 ft 467 kts 13°
2026-05-06 19:10 37.38498 -76.08239 34952 ft 468 kts 13°
2026-05-06 19:11 37.44498 -76.05017 34949 ft 470 kts 13°
2026-05-06 19:11 37.50511 -76.01778 34956 ft 471 kts 13°
2026-05-06 19:12 37.56542 -75.98533 34967 ft 472 kts 13°
2026-05-06 19:12 37.62466 -75.94821 34973 ft 485 kts 24°
2026-05-06 19:13 37.68107 -75.90144 34970 ft 485 kts 24°
2026-05-06 19:13 37.73744 -75.85460 34969 ft 485 kts 24°
2026-05-06 19:14 37.79387 -75.80780 34967 ft 485 kts 24°
2026-05-06 19:14 37.85036 -75.76089 34969 ft 486 kts 24°
2026-05-06 19:15 37.90682 -75.71375 34975 ft 486 kts 24°
2026-05-06 19:15 37.96329 -75.66652 34980 ft 486 kts 24°
2026-05-06 19:16 38.01975 -75.61932 34975 ft 486 kts 24°
2026-05-06 19:16 38.07623 -75.57202 34972 ft 486 kts 24°
2026-05-06 19:17 38.13265 -75.52469 34970 ft 486 kts 24°
2026-05-06 19:17 38.18906 -75.47724 34966 ft 486 kts 24°
2026-05-06 19:18 38.24570 -75.43038 34964 ft 480 kts 18°
2026-05-06 19:18 38.27549 -75.41279 34960 ft 466 kts
2026-05-06 19:18 38.30612 -75.40148 34957 ft 452 kts
2026-05-06 19:19 38.36773 -75.38837 34951 ft 449 kts 358°
2026-05-06 19:19 38.42936 -75.37540 34956 ft 449 kts 358°
2026-05-06 19:20 38.49094 -75.36234 34955 ft 448 kts 358°
2026-05-06 19:20 38.55244 -75.34920 34947 ft 448 kts 358°
2026-05-06 19:21 38.61402 -75.33600 34941 ft 449 kts 358°
2026-05-06 19:21 38.67557 -75.32290 34942 ft 448 kts 358°
2026-05-06 19:22 38.73674 -75.30986 34934 ft 449 kts 358°
2026-05-06 19:22 38.76786 -75.30050 34935 ft 462 kts
2026-05-06 19:22 38.79749 -75.28410 34929 ft 478 kts 18°
2026-05-06 19:23 38.85583 -75.24255 34926 ft 480 kts 18°
2026-05-06 19:23 38.90474 -75.20769 34924 ft 480 kts 18°
2026-05-06 19:24 38.96314 -75.16617 34921 ft 480 kts 18°
2026-05-06 19:24 39.02156 -75.12461 34922 ft 480 kts 18°
2026-05-06 19:25 39.07998 -75.08294 34918 ft 480 kts 18°
2026-05-06 19:25 39.13840 -75.04118 34912 ft 480 kts 18°
2026-05-06 19:26 39.19682 -74.99926 34908 ft 481 kts 18°
2026-05-06 19:26 39.25532 -74.95708 34911 ft 484 kts 20°
2026-05-06 19:27 39.31160 -74.90734 34907 ft 492 kts 25°
2026-05-06 19:27 39.36762 -74.85629 34904 ft 493 kts 25°
2026-05-06 19:28 39.42332 -74.80547 34905 ft 493 kts 25°
2026-05-06 19:28 39.47972 -74.75387 34906 ft 493 kts 25°
2026-05-06 19:29 39.53535 -74.70287 34906 ft 493 kts 25°
2026-05-06 19:29 39.59174 -74.65115 34904 ft 493 kts 25°
2026-05-06 19:30 39.64775 -74.59969 34900 ft 493 kts 25°
2026-05-06 19:30 39.70376 -74.54820 34894 ft 494 kts 25°
2026-05-06 19:31 39.75939 -74.49682 34892 ft 494 kts 25°
2026-05-06 19:31 39.84340 -74.41895 34889 ft 495 kts 25°
2026-05-06 19:32 39.89950 -74.36683 34886 ft 495 kts 25°
2026-05-06 19:32 39.95558 -74.31482 34884 ft 495 kts 25°
2026-05-06 19:33 40.01173 -74.26262 34882 ft 496 kts 26°
2026-05-06 19:33 40.06780 -74.21024 34884 ft 496 kts 26°
2026-05-06 19:34 40.12384 -74.15776 34881 ft 496 kts 26°
2026-05-06 19:34 40.17989 -74.10524 34884 ft 496 kts 26°
2026-05-06 19:35 40.23593 -74.05263 34881 ft 496 kts 26°
2026-05-06 19:35 40.29195 -73.99981 34886 ft 496 kts 26°
2026-05-06 19:36 40.34848 -73.94846 34882 ft 487 kts 18°
2026-05-06 19:36 40.40867 -73.91049 34886 ft 479 kts 14°
2026-05-06 19:37 40.46902 -73.87322 34879 ft 480 kts 14°
2026-05-06 19:37 40.52944 -73.83572 34882 ft 481 kts 15°
2026-05-06 19:38 40.58988 -73.79827 34885 ft 480 kts 15°
2026-05-06 19:38 40.65112 -73.76628 34880 ft 463 kts
2026-05-06 19:39 40.71371 -73.74797 34881 ft 461 kts
2026-05-06 19:39 40.77637 -73.72974 34877 ft 462 kts
2026-05-06 19:40 40.83911 -73.71145 34871 ft 462 kts
2026-05-06 19:40 40.90190 -73.69307 34869 ft 462 kts
2026-05-06 19:41 40.96470 -73.67461 34862 ft 462 kts
2026-05-06 19:41 41.02762 -73.65629 34855 ft 463 kts
2026-05-06 19:42 41.09060 -73.63784 34850 ft 464 kts
2026-05-06 19:42 41.15356 -73.61922 34845 ft 464 kts
2026-05-06 19:43 41.21665 -73.60057 34845 ft 465 kts
2026-05-06 19:43 41.27982 -73.58205 34845 ft 462 kts 359°
2026-05-06 19:44 41.34281 -73.57260 34843 ft 455 kts 355°
2026-05-06 19:44 41.40597 -73.56421 34850 ft 456 kts 355°
2026-05-06 19:45 41.46920 -73.55576 34850 ft 457 kts 355°
2026-05-06 19:45 41.53263 -73.54714 34849 ft 459 kts 355°
2026-05-06 19:46 41.59613 -73.53850 34853 ft 459 kts 355°
2026-05-06 19:46 41.65960 -73.52978 34849 ft 458 kts 355°
2026-05-06 19:47 41.72314 -73.52111 34846 ft 460 kts 355°
2026-05-06 19:47 41.78684 -73.51247 34843 ft 460 kts 355°
2026-05-06 19:48 41.85053 -73.50364 34840 ft 460 kts 355°
2026-05-06 19:48 41.91422 -73.49485 34838 ft 460 kts 355°
2026-05-06 19:49 41.97794 -73.48624 34831 ft 460 kts 355°
2026-05-06 19:49 42.04165 -73.47747 34819 ft 461 kts 355°
2026-05-06 19:50 42.10556 -73.46856 34794 ft 463 kts 355°
2026-05-06 19:50 42.16963 -73.45964 34797 ft 463 kts 355°
2026-05-06 19:51 42.23388 -73.45083 34793 ft 465 kts 355°
2026-05-06 19:51 42.29842 -73.44194 34803 ft 466 kts 356°
2026-05-06 19:52 42.36303 -73.43294 34798 ft 467 kts 356°
2026-05-06 19:52 42.42774 -73.42388 34802 ft 468 kts 356°
2026-05-06 19:53 42.49258 -73.41479 34805 ft 469 kts 356°
2026-05-06 19:53 42.55750 -73.40566 34801 ft 469 kts 356°
2026-05-06 19:54 42.62252 -73.39659 34795 ft 470 kts 356°
2026-05-06 19:54 42.68763 -73.38741 34791 ft 471 kts 356°
2026-05-06 19:55 42.75284 -73.37816 34781 ft 472 kts 357°
2026-05-06 19:55 42.81793 -73.36905 34780 ft 474 kts 357°
2026-05-06 19:56 42.88364 -73.35983 34778 ft 476 kts 357°
2026-05-06 19:56 42.94959 -73.35048 34778 ft 477 kts 357°
2026-05-06 19:57 43.01529 -73.34579 34776 ft 465 kts 347°
2026-05-06 19:57 43.07996 -73.35174 34783 ft 467 kts 347°
2026-05-06 19:58 43.14482 -73.35759 34786 ft 468 kts 347°
2026-05-06 19:58 43.20995 -73.36333 34787 ft 470 kts 347°
2026-05-06 19:59 43.27529 -73.36917 34790 ft 471 kts 347°
2026-05-06 19:59 43.34075 -73.37507 34795 ft 472 kts 347°
2026-05-06 20:00 43.40646 -73.38091 34798 ft 474 kts 348°
2026-05-06 20:00 43.47233 -73.38688 34806 ft 475 kts 348°
2026-05-06 20:01 43.53839 -73.39294 34803 ft 476 kts 348°
2026-05-06 20:01 43.60456 -73.39902 34810 ft 478 kts 348°
2026-05-06 20:02 43.67096 -73.40503 34812 ft 479 kts 348°
2026-05-06 20:02 43.73747 -73.41135 34816 ft 479 kts 347°
2026-05-06 20:03 43.80401 -73.41883 34814 ft 480 kts 347°
2026-05-06 20:03 43.83737 -73.42289 34390 ft 484 kts 347°
2026-05-06 20:03 43.87137 -73.42708 33390 ft 494 kts 347°
2026-05-06 20:04 43.90579 -73.43124 32452 ft 500 kts 348°
2026-05-06 20:04 43.94073 -73.43536 31481 ft 506 kts 348°
2026-05-06 20:04 43.97597 -73.43938 30692 ft 508 kts 348°
2026-05-06 20:04 44.01097 -73.44318 30140 ft 503 kts 348°
2026-05-06 20:05 44.04579 -73.44695 29507 ft 501 kts 349°
2026-05-06 20:05 44.08046 -73.45079 28877 ft 499 kts 348°
2026-05-06 20:05 44.11498 -73.45469 28247 ft 496 kts 349°
2026-05-06 20:05 44.14922 -73.45859 27628 ft 492 kts 349°
2026-05-06 20:06 44.17172 -73.46116 27232 ft 489 kts 349°
2026-05-06 20:06 44.20543 -73.46502 26605 ft 484 kts 349°
2026-05-06 20:06 44.24960 -73.47008 25828 ft 478 kts 349°
2026-05-06 20:06 44.27187 -73.47263 25518 ft 473 kts 349°
2026-05-06 20:07 44.30456 -73.47640 24849 ft 468 kts 349°
2026-05-06 20:07 44.33654 -73.48009 24239 ft 454 kts 349°
2026-05-06 20:07 44.36749 -73.48366 23730 ft 439 kts 348°
2026-05-06 20:07 44.40716 -73.48822 23057 ft 429 kts 348°
2026-05-06 20:08 44.42721 -73.49057 22724 ft 427 kts 348°
2026-05-06 20:08 44.45674 -73.49406 22235 ft 425 kts 348°
2026-05-06 20:08 44.48613 -73.49755 21748 ft 423 kts 348°
2026-05-06 20:08 44.51533 -73.50098 21273 ft 420 kts 348°
2026-05-06 20:09 44.54439 -73.50437 20800 ft 417 kts 348°
2026-05-06 20:09 44.57321 -73.50776 20308 ft 415 kts 348°
2026-05-06 20:09 44.60181 -73.51113 19820 ft 411 kts 348°
2026-05-06 20:09 44.63021 -73.51444 19303 ft 407 kts 348°
2026-05-06 20:10 44.65848 -73.51773 18802 ft 406 kts 349°
2026-05-06 20:10 44.68647 -73.52097 18318 ft 402 kts 348°
2026-05-06 20:10 44.71424 -73.52421 17836 ft 399 kts 348°
2026-05-06 20:10 44.74174 -73.52747 17411 ft 393 kts 348°
2026-05-06 20:11 44.76876 -73.53067 17049 ft 386 kts 348°
2026-05-06 20:11 44.79500 -73.53373 16911 ft 368 kts 348°
2026-05-06 20:11 44.81994 -73.53656 16626 ft 353 kts 348°
2026-05-06 20:11 44.84415 -73.53940 16106 ft 346 kts 347°
2026-05-06 20:12 44.86801 -73.54226 15496 ft 343 kts 348°
2026-05-06 20:12 44.89167 -73.54502 14887 ft 340 kts 348°
2026-05-06 20:12 44.91512 -73.54769 14333 ft 336 kts 348°
2026-05-06 20:12 44.93828 -73.55026 13873 ft 334 kts 348°
2026-05-06 20:13 44.96142 -73.55281 13468 ft 333 kts 348°
2026-05-06 20:13 44.98445 -73.55532 13052 ft 332 kts 348°
2026-05-06 20:13 45.00708 -73.55779 12632 ft 332 kts 348°
2026-05-06 20:13 45.03021 -73.56035 12341 ft 326 kts 348°
2026-05-06 20:14 45.05249 -73.56286 11946 ft 326 kts 348°
2026-05-06 20:14 45.07525 -73.56543 11479 ft 321 kts 348°
2026-05-06 20:14 45.09731 -73.56784 10876 ft 315 kts 349°
2026-05-06 20:14 45.11886 -73.57016 10506 ft 315 kts 349°
2026-05-06 20:15 45.14066 -73.57250 10128 ft 314 kts 350°
2026-05-06 20:15 45.16238 -73.57487 9755 ft 312 kts 350°
2026-05-06 20:15 45.18396 -73.57726 9417 ft 310 kts 351°
2026-05-06 20:15 45.20533 -73.57963 9098 ft 307 kts 351°
2026-05-06 20:16 45.22663 -73.58200 8725 ft 305 kts 352°
2026-05-06 20:16 45.24766 -73.58436 8405 ft 302 kts 352°
2026-05-06 20:16 45.26865 -73.58673 8060 ft 302 kts 352°
2026-05-06 20:16 45.28935 -73.58910 7769 ft 296 kts 352°
2026-05-06 20:17 45.30993 -73.59137 7407 ft 297 kts 352°
2026-05-06 20:17 45.33040 -73.59365 7098 ft 294 kts 352°
2026-05-06 20:17 45.35072 -73.59596 6790 ft 291 kts 352°
2026-05-06 20:17 45.37069 -73.59796 6460 ft 287 kts 355°
2026-05-06 20:18 45.39053 -73.59527 6097 ft 288 kts 12°
2026-05-06 20:18 45.40928 -73.58460 5760 ft 287 kts 29°
2026-05-06 20:18 45.42570 -73.56919 5418 ft 286 kts 32°
2026-05-06 20:18 45.44206 -73.55343 5081 ft 284 kts 32°
2026-05-06 20:19 45.45835 -73.53772 4777 ft 281 kts 33°
2026-05-06 20:19 45.47451 -73.52212 4415 ft 280 kts 33°
2026-05-06 20:19 45.49037 -73.50679 4248 ft 271 kts 33°
2026-05-06 20:19 45.50568 -73.49200 4134 ft 260 kts 33°
2026-05-06 20:20 45.52039 -73.47777 4006 ft 251 kts 33°
2026-05-06 20:20 45.53450 -73.46415 3937 ft 239 kts 33°
2026-05-06 20:20 45.54809 -73.45104 3907 ft 233 kts 33°
2026-05-06 20:20 45.56106 -73.43853 3846 ft 218 kts 33°
2026-05-06 20:21 45.57257 -73.42478 3791 ft 216 kts 42°
2026-05-06 20:21 45.58355 -73.41035 3655 ft 214 kts 42°
2026-05-06 20:21 45.59466 -73.39633 3604 ft 212 kts 34°
2026-05-06 20:21 45.60830 -73.38906 3553 ft 212 kts
2026-05-06 20:22 45.62245 -73.39190 3243 ft 205 kts 336°
2026-05-06 20:22 45.63331 -73.40412 2999 ft 194 kts 306°
2026-05-06 20:22 45.63875 -73.42122 3006 ft 188 kts 282°
2026-05-06 20:22 45.63882 -73.43964 3006 ft 185 kts 264°
2026-05-06 20:23 45.63761 -73.45797 3000 ft 185 kts 265°
2026-05-06 20:23 45.63638 -73.47628 3000 ft 186 kts 265°
2026-05-06 20:23 45.63516 -73.49465 3001 ft 186 kts 264°
2026-05-06 20:23 45.63397 -73.51302 3000 ft 185 kts 264°
2026-05-06 20:24 45.63173 -73.53108 2995 ft 185 kts 252°
2026-05-06 20:24 45.62547 -73.54694 2995 ft 185 kts 229°
2026-05-06 20:24 45.61657 -73.56006 2989 ft 180 kts 224°
2026-05-06 20:24 45.60785 -73.57193 3008 ft 170 kts 223°
2026-05-06 20:25 45.59933 -73.58326 2998 ft 164 kts 223°
2026-05-06 20:25 45.59090 -73.59440 2902 ft 165 kts 223°
2026-05-06 20:25 45.58245 -73.60556 2728 ft 165 kts 223°
2026-05-06 20:25 45.57401 -73.61666 2516 ft 165 kts 222°
2026-05-06 20:26 45.56565 -73.62767 2313 ft 164 kts 222°
2026-05-06 20:26 45.55729 -73.63866 2093 ft 163 kts 223°
2026-05-06 20:26 45.54902 -73.64955 1877 ft 162 kts 223°
2026-05-06 20:26 45.54078 -73.66039 1669 ft 161 kts 223°
2026-05-06 20:27 45.53288 -73.67078 1453 ft 148 kts 223°
2026-05-06 20:27 45.52548 -73.68050 1262 ft 143 kts 223°
2026-05-06 20:27 45.51824 -73.69001 1078 ft 140 kts 223°
2026-05-06 20:27 45.51108 -73.69939 893 ft 140 kts 223°
2026-05-06 20:28 45.50396 -73.70876 695 ft 139 kts 223°
2026-05-06 20:28 45.49687 -73.71810 535 ft 139 kts 224°
2026-05-06 20:28 45.48981 -73.72745 344 ft 138 kts 223°
2026-05-06 20:28 45.48265 -73.73660 151 ft 138 kts 223°
2026-05-06 20:29 45.47625 -73.74522 110 ft 108 kts 223°
2026-05-06 20:29 45.47197 -73.75079 114 ft 59 kts 222°
2026-05-06 20:29 45.46978 -73.75364 109 ft 28 kts 221°
2026-05-06 20:29 45.46837 -73.75527 108 ft 23 kts 209°
2026-05-06 20:30 45.46683 -73.75605 106 ft 24 kts 194°
2026-05-06 20:30 45.46460 -73.75676 104 ft 15 kts 192°
2026-05-06 20:30 45.46385 -73.75700 102 ft 7 kts 192°
2026-05-06 20:31 45.46339 -73.75714 104 ft 4 kts 192°
2026-05-06 20:31 45.46313 -73.75722 104 ft 2 kts 192°
2026-05-06 20:31 45.46297 -73.75727 103 ft 3 kts 192°
2026-05-06 20:31 45.46270 -73.75731 104 ft 5 kts 179°
2026-05-06 20:32 45.46218 -73.75725 102 ft 9 kts 176°
2026-05-06 20:32 45.46144 -73.75721 101 ft 11 kts 178°
2026-05-06 20:32 45.46072 -73.75703 104 ft 9 kts 139°
2026-05-06 20:32 45.46063 -73.75622 104 ft 8 kts 88°
2026-05-06 20:33 45.46061 -73.75558 104 ft 3 kts 111°
2026-05-06 20:33 45.46048 -73.75546 105 ft 2 kts 158°
2026-05-06 20:33 45.46034 -73.75547 105 ft 3 kts 178°
2026-05-06 20:33 45.46006 -73.75545 105 ft 4 kts 177°
2026-05-06 20:34 45.45985 -73.75543 104 ft 2 kts 178°
2026-05-06 20:34 45.45975 -73.75543 105 ft 0 kts 178°